View from above orbital plane
|
View from above satellite
|
Ground track
|
The orbit data is extracted from the following two-line orbital elements,
1 17528U 87018B 21019.92973224 .00000010 00000-0 11168-4 0 9990
2 17528 97.3995 209.5325 0152716 143.4536 217.7200 14.51024919769615
Epoch (UTC): | 19 January 2021 22:18:48 |
Eccentricity: | 0.0152716 |
inclination: | 97.3995° |
perigee height: | 614 km |
apogee height: | 831 km |
right ascension of ascending node: | 209.5325° |
argument of perigee: | 143.4536° |
revolutions per day: | 14.51024919 |
mean anomaly at epoch: | 217.7200° |
orbit number at epoch: | 76961 |
The dashed part of the orbit path shows where the satellite is in the earth's shadow,
|
|